| time (UTC) | temp C | wind direction | speed KPH | gust KPH | rain 1hr cm | rain 24hr cm | rain mn cm | humidity % | barometer mb |
| 20260905211216 | 28 | 154 | 11.3 | 25.7 | 0.00 | 0.00 | 0.00 | 21 | 1019.9 |
| 20260905210216 | 28 | 155 | 12.9 | 22.5 | 0.00 | 0.00 | 0.00 | 21 | 1019.9 |
| 20260905205216 | 28 | 159 | 9.7 | 16.1 | 0.00 | 0.00 | 0.00 | 22 | 1020.0 |
| 20260905204236 | 27 | 167 | 14.5 | 20.9 | 0.00 | 0.00 | 0.00 | 19 | 1019.4 |
| 20260905203216 | 27 | 183 | 9.7 | 17.7 | 0.00 | 0.00 | 0.00 | 23 | 1020.0 |
| 20260905202216 | 27 | 158 | 11.3 | 24.1 | 0.00 | 0.00 | 0.00 | 23 | 1019.9 |
| 20260905201216 | 27 | 158 | 14.5 | 22.5 | 0.00 | 0.00 | 0.00 | 23 | 1020.1 |
| 20260905200216 | 27 | 107 | 8.0 | 19.3 | 0.00 | 0.00 | 0.00 | 23 | 1020.1 |
| 20260905195236 | 27 | 162 | 11.3 | 29.0 | 0.00 | 0.00 | 0.00 | 23 | 1020.0 |
| 20260905194216 | 27 | 151 | 12.9 | 22.5 | 0.00 | 0.00 | 0.00 | 25 | 1020.3 |
| 20260905193216 | 26 | 104 | 12.9 | 25.7 | 0.00 | 0.00 | 0.00 | 25 | 1020.0 |
| 20260905192236 | 26 | 118 | 12.9 | 27.4 | 0.00 | 0.00 | 0.00 | 25 | 1020.2 |
| 20260905191216 | 26 | 93 | 24.1 | 40.2 | 0.00 | 0.00 | 0.00 | 26 | 1020.4 |
| 20260905190236 | 26 | 149 | 16.1 | 30.6 | 0.00 | 0.00 | 0.00 | 24 | 1020.6 |
| 20260905185216 | 26 | 142 | 20.9 | 29.0 | 0.00 | 0.00 | 0.00 | 25 | 1020.5 |
| 20260905184216 | 26 | 102 | 17.7 | 27.4 | 0.00 | 0.00 | 0.00 | 25 | 1021.1 |
| 20260905183216 | 26 | 135 | 14.5 | 30.6 | 0.00 | 0.00 | 0.00 | 25 | 1021.1 |
| 20260905182216 | 25 | 168 | 11.3 | 19.3 | 0.00 | 0.00 | 0.00 | 26 | 1021.2 |
| 20260905181216 | 25 | 153 | 17.7 | 29.0 | 0.00 | 0.00 | 0.00 | 26 | 1021.2 |
| 20260905180216 | 26 | 187 | 19.3 | 32.2 | 0.00 | 0.00 | 0.00 | 19 | 1021.5 |
| 20260905175216 | 25 | 180 | 16.1 | 29.0 | 0.00 | 0.00 | 0.00 | 21 | 1021.0 |
| 20260905174216 | 25 | 122 | 16.1 | 30.6 | 0.00 | 0.00 | 0.00 | 28 | 1021.0 |
| 20260905173216 | 25 | 178 | 17.7 | 30.6 | 0.00 | 0.00 | 0.00 | 22 | 1021.1 |
| 20260905172216 | 25 | 182 | 6.4 | 17.7 | 0.00 | 0.00 | 0.00 | 28 | 1021.2 |
| 20260905171236 | 25 | 202 | 8.0 | 14.5 | 0.00 | 0.00 | 0.00 | 29 | 1021.4 |
| 20260905170216 | 25 | 173 | 12.9 | 17.7 | 0.00 | 0.00 | 0.00 | 21 | 1021.6 |
| 20260905165216 | 25 | 178 | 12.9 | 30.6 | 0.00 | 0.00 | 0.00 | 21 | 1021.6 |
| 20260905164216 | 24 | 188 | 16.1 | 24.1 | 0.00 | 0.00 | 0.00 | 27 | 1021.1 |
| 20260905163216 | 24 | 177 | 12.9 | 27.4 | 0.00 | 0.00 | 0.00 | 21 | 1021.0 |
| 20260905162216 | 23 | 189 | 11.3 | 20.9 | 0.00 | 0.00 | 0.00 | 25 | 1020.9 |
| 20260905161215 | 23 | 75 | 6.4 | 8.0 | 0.00 | 0.00 | 0.00 | 40 | 1021.3 |
| 20260905160216 | 22 | 1 | 4.8 | 8.0 | 0.00 | 0.00 | 0.00 | 38 | 1020.8 |
| 20260905155216 | 21 | 64 | 11.3 | 16.1 | 0.00 | 0.00 | 0.00 | 42 | 1020.5 |
| 20260905154215 | 21 | 56 | 8.0 | 16.1 | 0.00 | 0.00 | 0.00 | 41 | 1020.8 |
| 20260905153236 | 21 | 72 | 9.7 | 12.9 | 0.00 | 0.00 | 0.00 | 45 | 1020.9 |
| 20260905152216 | 21 | 59 | 6.4 | 12.9 | 0.00 | 0.00 | 0.00 | 45 | 1021.1 |
| 20260905151215 | 22 | 103 | 1.6 | 4.8 | 0.00 | 0.00 | 0.00 | 37 | 1021.3 |
| 20260905150215 | 22 | 108 | 3.2 | 6.4 | 0.00 | 0.00 | 0.00 | 35 | 1021.1 |
| 20260905145216 | 22 | 109 | 4.8 | 4.8 | 0.00 | 0.00 | 0.00 | 34 | 1021.1 |
| 20260905144236 | 22 | 109 | 3.2 | 3.2 | 0.00 | 0.00 | 0.00 | 34 | 1021.5 |
| 20260905143216 | 21 | 109 | 1.6 | 3.2 | 0.00 | 0.00 | 0.00 | 34 | 1021.2 |
| 20260905142216 | 20 | 0.0 | 0.0 | 0.00 | 0.00 | 0.00 | 37 | 1020.7 | |
| 20260905141216 | 20 | 109 | 0.0 | 1.6 | 0.00 | 0.00 | 0.00 | 39 | 1020.7 |
| 20260905140215 | 20 | 0.0 | 0.0 | 0.00 | 0.00 | 0.00 | 39 | 1020.5 | |
| 20260905135215 | 19 | 110 | 0.0 | 3.2 | 0.00 | 0.00 | 0.00 | 40 | 1020.6 |
| 20260905134215 | 18 | 98 | 1.6 | 4.8 | 0.00 | 0.00 | 0.00 | 41 | 1020.5 |
| 20260905133235 | 17 | 98 | 1.6 | 4.8 | 0.00 | 0.00 | 0.00 | 36 | 1019.8 |
| 20260905132215 | 17 | 98 | 4.8 | 6.4 | 0.00 | 0.00 | 0.00 | 31 | 1019.7 |
| 20260905131215 | 17 | 98 | 0.0 | 1.6 | 0.00 | 0.00 | 0.00 | 30 | 1019.9 |
| 20260905130215 | 18 | 98 | 0.0 | 3.2 | 0.00 | 0.00 | 0.00 | 30 | 1019.7 |
| 20260905125215 | 19 | 98 | 1.6 | 3.2 | 0.00 | 0.00 | 0.00 | 27 | 1020.0 |
| 20260905124215 | 19 | 98 | 3.2 | 6.4 | 0.00 | 0.00 | 0.00 | 27 | 1019.9 |
| 20260905123215 | 18 | 56 | 6.4 | 9.7 | 0.00 | 0.00 | 0.00 | 28 | 1019.4 |
| 20260905122215 | 18 | 0 | 4.8 | 8.0 | 0.00 | 0.00 | 0.00 | 28 | 1019.7 |
| 20260905121215 | 18 | 325 | 4.8 | 6.4 | 0.00 | 0.00 | 0.00 | 27 | 1019.5 |
| 20260905120215 | 18 | 341 | 8.0 | 9.7 | 0.00 | 0.00 | 0.00 | 28 | 1019.5 |
| 20260905115215 | 19 | 242 | 1.6 | 1.6 | 0.00 | 0.00 | 0.00 | 27 | 1019.4 |
| 20260905114215 | 19 | 242 | 4.8 | 4.8 | 0.00 | 0.00 | 0.00 | 27 | 1019.8 |
| 20260905113215 | 20 | 236 | 3.2 | 4.8 | 0.00 | 0.00 | 0.00 | 27 | 1019.8 |
| 20260905112215 | 20 | 251 | 3.2 | 4.8 | 0.00 | 0.00 | 0.00 | 26 | 1020.1 |
| 20260905111215 | 20 | 230 | 4.8 | 6.4 | 0.00 | 0.00 | 0.00 | 25 | 1020.0 |
| 20260905110215 | 21 | 193 | 8.0 | 14.5 | 0.00 | 0.00 | 0.00 | 25 | 1019.9 |
| 20260905105215 | 21 | 195 | 9.7 | 12.9 | 0.00 | 0.00 | 0.00 | 25 | 1020.0 |
| 20260905104215 | 21 | 193 | 9.7 | 16.1 | 0.00 | 0.00 | 0.00 | 25 | 1020.1 |
| 20260905103215 | 21 | 182 | 8.0 | 14.5 | 0.00 | 0.00 | 0.00 | 25 | 1019.9 |
| 20260905102215 | 21 | 184 | 12.9 | 19.3 | 0.00 | 0.00 | 0.00 | 25 | 1019.8 |
| 20260905101215 | 21 | 204 | 6.4 | 9.7 | 0.00 | 0.00 | 0.00 | 25 | 1019.9 |
| 20260905100235 | 22 | 201 | 8.0 | 14.5 | 0.00 | 0.00 | 0.00 | 25 | 1020.0 |
| 20260905095215 | 22 | 189 | 11.3 | 17.7 | 0.00 | 0.00 | 0.00 | 26 | 1020.1 |
| 20260905094217 | 22 | 186 | 4.8 | 14.5 | 0.00 | 0.00 | 0.00 | 27 | 1019.7 |
| 20260905093216 | 22 | 182 | 9.7 | 16.1 | 0.00 | 0.00 | 0.00 | 28 | 1019.7 |
| 20260905092217 | 22 | 164 | 12.9 | 22.5 | 0.00 | 0.00 | 0.00 | 29 | 1019.7 |
| 20260905091215 | 22 | 160 | 6.4 | 12.9 | 0.00 | 0.00 | 0.00 | 30 | 1019.7 |
| 20260905090237 | 22 | 159 | 8.0 | 17.7 | 0.00 | 0.00 | 0.00 | 30 | 1019.9 |
| 20260905085217 | 22 | 192 | 9.7 | 16.1 | 0.00 | 0.00 | 0.00 | 30 | 1020.0 |
| 20260905084217 | 22 | 192 | 8.0 | 9.7 | 0.00 | 0.00 | 0.00 | 30 | 1019.8 |
| 20260905083217 | 22 | 179 | 14.5 | 27.4 | 0.00 | 0.00 | 0.00 | 30 | 1019.7 |
| 20260905082216 | 23 | 190 | 12.9 | 25.7 | 0.00 | 0.00 | 0.00 | 29 | 1019.7 |
| 20260905081216 | 23 | 174 | 6.4 | 16.1 | 0.00 | 0.00 | 0.00 | 30 | 1019.4 |
| 20260905080216 | 23 | 192 | 9.7 | 16.1 | 0.00 | 0.00 | 0.00 | 30 | 1019.4 |
| 20260905075217 | 23 | 190 | 6.4 | 12.9 | 0.00 | 0.00 | 0.00 | 30 | 1019.2 |
| 20260905074216 | 22 | 192 | 11.3 | 20.9 | 0.00 | 0.00 | 0.00 | 30 | 1019.2 |
| 20260905073257 | 22 | 190 | 9.7 | 17.7 | 0.00 | 0.00 | 0.00 | 31 | 1019.0 |
| 20260905072236 | 22 | 211 | 9.7 | 12.9 | 0.00 | 0.00 | 0.00 | 31 | 1018.9 |
| 20260905071237 | 22 | 224 | 8.0 | 11.3 | 0.00 | 0.00 | 0.00 | 30 | 1018.3 |
| 20260905070216 | 22 | 191 | 9.7 | 17.7 | 0.00 | 0.00 | 0.00 | 31 | 1018.4 |
| 20260905065216 | 23 | 201 | 6.4 | 12.9 | 0.00 | 0.00 | 0.00 | 31 | 1018.6 |
| 20260905064216 | 23 | 194 | 4.8 | 8.0 | 0.00 | 0.00 | 0.00 | 30 | 1018.0 |
| 20260905063236 | 23 | 198 | 8.0 | 16.1 | 0.00 | 0.00 | 0.00 | 29 | 1017.8 |
| 20260905062216 | 23 | 188 | 8.0 | 19.3 | 0.00 | 0.00 | 0.00 | 29 | 1017.6 |
| 20260905060216 | 23 | 200 | 17.7 | 25.7 | 0.00 | 0.00 | 0.00 | 29 | 1017.3 |
| 20260905055216 | 23 | 191 | 8.0 | 16.1 | 0.00 | 0.00 | 0.00 | 29 | 1017.2 |
| 20260905054215 | 23 | 177 | 12.9 | 25.7 | 0.00 | 0.00 | 0.00 | 29 | 1016.9 |
| 20260905053216 | 24 | 183 | 11.3 | 17.7 | 0.00 | 0.00 | 0.00 | 29 | 1017.3 |
| 20260905052216 | 23 | 191 | 17.7 | 27.4 | 0.00 | 0.00 | 0.00 | 28 | 1016.9 |
| 20260905051216 | 24 | 195 | 4.8 | 9.7 | 0.00 | 0.00 | 0.00 | 27 | 1016.9 |
| 20260905050215 | 24 | 210 | 8.0 | 16.1 | 0.00 | 0.00 | 0.00 | 27 | 1016.8 |
| 20260905045236 | 24 | 202 | 11.3 | 20.9 | 0.00 | 0.00 | 0.00 | 26 | 1016.8 |
| 20260905044215 | 24 | 195 | 6.4 | 17.7 | 0.00 | 0.00 | 0.00 | 26 | 1016.7 |
| 20260905043215 | 25 | 202 | 11.3 | 16.1 | 0.00 | 0.00 | 0.00 | 26 | 1017.0 |
| 20260905042235 | 24 | 186 | 14.5 | 27.4 | 0.00 | 0.00 | 0.00 | 26 | 1016.7 |
| 20260905041215 | 23 | 200 | 4.8 | 14.5 | 0.00 | 0.00 | 0.00 | 26 | 1016.4 |
| 20260905040215 | 23 | 190 | 3.2 | 6.4 | 0.00 | 0.00 | 0.00 | 26 | 1016.4 |
| 20260905035215 | 23 | 198 | 4.8 | 8.0 | 0.00 | 0.00 | 0.00 | 26 | 1016.1 |
| 20260905034215 | 24 | 174 | 3.2 | 8.0 | 0.00 | 0.00 | 0.00 | 25 | 1015.6 |
| 20260905033215 | 24 | 196 | 6.4 | 9.7 | 0.00 | 0.00 | 0.00 | 25 | 1015.7 |
| 20260905032215 | 24 | 186 | 4.8 | 9.7 | 0.00 | 0.00 | 0.00 | 25 | 1015.5 |
| 20260905031215 | 25 | 198 | 6.4 | 11.3 | 0.00 | 0.00 | 0.00 | 25 | 1015.4 |
| 20260905030235 | 25 | 208 | 9.7 | 12.9 | 0.00 | 0.00 | 0.00 | 25 | 1015.4 |
| 20260905025235 | 25 | 200 | 3.2 | 6.4 | 0.00 | 0.00 | 0.00 | 26 | 1015.5 |
| 20260905024215 | 26 | 188 | 9.7 | 12.9 | 0.00 | 0.00 | 0.00 | 25 | 1015.2 |
| 20260905023215 | 26 | 196 | 12.9 | 14.5 | 0.00 | 0.00 | 0.00 | 25 | 1015.1 |
| 20260905022235 | 26 | 215 | 8.0 | 11.3 | 0.00 | 0.00 | 0.00 | 25 | 1015.0 |
| 20260905021215 | 26 | 201 | 11.3 | 19.3 | 0.00 | 0.00 | 0.00 | 24 | 1014.6 |
| 20260905020215 | 26 | 179 | 11.3 | 16.1 | 0.00 | 0.00 | 0.00 | 25 | 1014.4 |
| 20260905015215 | 27 | 179 | 9.7 | 20.9 | 0.00 | 0.00 | 0.00 | 24 | 1014.7 |
| 20260905014215 | 27 | 178 | 8.0 | 19.3 | 0.00 | 0.00 | 0.00 | 24 | 1014.4 |
| 20260905013215 | 27 | 190 | 14.5 | 27.4 | 0.00 | 0.00 | 0.00 | 23 | 1014.4 |
| 20260905012215 | 27 | 182 | 16.1 | 32.2 | 0.00 | 0.00 | 0.00 | 23 | 1014.4 |
| 20260905011215 | 28 | 199 | 12.9 | 22.5 | 0.00 | 0.00 | 0.00 | 23 | 1014.6 |
| 20260905010215 | 28 | 191 | 22.5 | 35.4 | 0.00 | 0.00 | 0.00 | 23 | 1014.6 |
| 20260905005215 | 28 | 187 | 16.1 | 33.8 | 0.00 | 0.00 | 0.00 | 23 | 1014.7 |
| 20260905004215 | 28 | 214 | 19.3 | 37.0 | 0.00 | 0.00 | 0.00 | 22 | 1015.0 |
| 20260905003215 | 28 | 204 | 24.1 | 38.6 | 0.00 | 0.00 | 0.00 | 22 | 1015.0 |
| 20260905002215 | 28 | 202 | 20.9 | 35.4 | 0.00 | 0.00 | 0.00 | 22 | 1015.1 |
| 20260905001215 | 28 | 200 | 20.9 | 40.2 | 0.00 | 0.00 | 0.00 | 21 | 1015.1 |
| 20260905000218 | 28 | 193 | 24.1 | 35.4 | 0.00 | 0.00 | 0.00 | 21 | 1015.1 |
| 20260904235315 | 28 | 198 | 19.3 | 38.6 | 0.00 | 0.00 | 0.00 | 21 | 1015.0 |
| 20260904234216 | 28 | 194 | 27.4 | 38.6 | 0.00 | 0.00 | 0.00 | 20 | 1014.7 |
| 20260904233217 | 29 | 201 | 25.7 | 40.2 | 0.00 | 0.00 | 0.00 | 20 | 1014.9 |
| 20260904232215 | 29 | 196 | 22.5 | 38.6 | 0.00 | 0.00 | 0.00 | 19 | 1014.8 |
| 20260904231237 | 29 | 188 | 25.7 | 38.6 | 0.00 | 0.00 | 0.00 | 19 | 1015.3 |
| 20260904230216 | 29 | 189 | 22.5 | 41.8 | 0.00 | 0.00 | 0.00 | 19 | 1015.2 |
| 20260904225217 | 28 | 198 | 22.5 | 35.4 | 0.00 | 0.00 | 0.00 | 18 | 1015.3 |
| 20260904224217 | 29 | 216 | 25.7 | 33.8 | 0.00 | 0.00 | 0.00 | 18 | 1015.7 |
| 20260904223217 | 29 | 193 | 25.7 | 45.1 | 0.00 | 0.00 | 0.00 | 18 | 1015.7 |
| 20260904222217 | 29 | 200 | 20.9 | 35.4 | 0.00 | 0.00 | 0.00 | 18 | 1015.8 |
| 20260904221217 | 28 | 195 | 27.4 | 38.6 | 0.00 | 0.00 | 0.00 | 18 | 1015.7 |
| 20260904220217 | 28 | 197 | 19.3 | 32.2 | 0.00 | 0.00 | 0.00 | 18 | 1015.9 |
| 20260904215217 | 28 | 186 | 24.1 | 43.5 | 0.00 | 0.00 | 0.00 | 18 | 1016.1 |
| 20260904214216 | 28 | 189 | 16.1 | 33.8 | 0.00 | 0.00 | 0.00 | 17 | 1016.1 |
| 20260904213217 | 28 | 204 | 24.1 | 37.0 | 0.00 | 0.00 | 0.00 | 18 | 1016.2 |
| 20260904212216 | 28 | 192 | 20.9 | 38.6 | 0.00 | 0.00 | 0.00 | 18 | 1016.3 |